Location: Lecco
(45.8566°N, 9.3977°E)
Time: 08:27:16
(UTC+02:00)

Altair - Pass Details

Date: 21 August 2020
Orbit: 1501 x 1682 km, 47.2° (Epoch: 25 September)

Event Time Altitude Azimuth Distance (km) Brightness Sun altitude
Rises 21:59:31 0° 169° (S) 4,899 - -16.2°
Reaches altitude 10° 22:05:34 10° 142° (SE) 3,886 - -17.0°
Maximum altitude 22:08:52 12° 122° (ESE) 3,702 - -17.5°
Drops below altitude 10° 22:12:07 10° 102° (ESE) 3,849 - -17.9°
Exits shadow 22:16:54 - 79° (E) 4,577 9.6 -18.5°
Sets 22:17:57 0° 75° (ENE) 4,796 9.8 -18.7°
